MDT,Max TemperatureF,Mean TemperatureF,Min TemperatureF,Max Dew PointF,MeanDew PointF,Min DewpointF,Max Humidity, Mean Humidity, Min Humidity, Max Sea Level PressureIn, Mean Sea Level PressureIn, Min Sea Level PressureIn, Max VisibilityMiles, Mean VisibilityMiles, Min VisibilityMiles, Max Wind SpeedMPH, Mean Wind SpeedMPH, Max Gust SpeedMPH,PrecipitationIn, CloudCover, Events, WindDirDegrees
2013-8-1,89,70,50,52,46,41,76,47,21,30.17,30.10,30.00,10,10,7,28,6,33,0.00,1,,198
2013-8-2,89,70,51,52,40,25,88,44,10,30.14,30.08,30.03,10,10,7,21,5,30,0.00,0,,240
2013-8-3,89,68,48,43,36,27,76,37,10,30.19,30.14,30.09,10,10,7,20,4,30,0.00,0,,230
2013-8-4,89,68,46,45,38,32,81,39,13,30.24,30.17,30.10,10,10,10,18,4,28,0.00,0,,218
2013-8-5,91,70,50,45,38,32,76,35,13,30.21,30.13,30.05,10,10,7,18,4,30,0.00,0,Rain,219
2013-8-6,89,70,50,50,40,28,76,40,13,30.15,30.11,30.07,10,10,10,17,2,16,0.00,0,Rain,147
2013-8-7,91,68,46,52,42,32,82,52,12,30.19,30.13,30.04,10,10,4,23,3,30,0.00,0,Rain-Thunderstorm,144
2013-8-8,82,66,50,54,47,37,88,62,21,30.18,30.13,30.09,10,10,3,26,2,37,0.00,1,Rain-Thunderstorm,49
2013-8-9,82,63,44,52,45,32,93,64,16,30.23,30.17,30.10,10,10,7,28,2,39,0.00,1,Rain-Thunderstorm,151
2013-8-10,87,66,44,50,42,30,93,55,13,30.26,30.21,30.14,10,10,10,22,3,33,0.00,0,Thunderstorm,178
2013-8-11,87,66,46,46,39,32,87,42,14,30.27,30.20,30.11,10,10,10,21,4,25,0.00,1,Thunderstorm,182
2013-8-12,82,64,46,50,42,32,87,49,16,30.24,30.20,30.16,10,10,10,15,2,25,0.00,1,Rain-Thunderstorm,90
2013-8-13,89,66,44,45,38,23,87,46,9,30.27,30.22,30.14,10,10,10,18,3,25,0.00,0,,145
2013-8-14,91,70,48,45,36,19,82,41,7,30.26,30.19,30.11,10,10,10,17,3,24,0.00,0,,207
2013-8-15,93,68,42,41,33,19,81,39,7,30.26,30.19,30.13,10,10,10,14,2,16,0.00,0,,210
2013-8-16,93,68,42,46,35,23,76,39,8,30.28,30.21,30.15,10,10,10,17,2,21,0.00,0,,211
2013-8-17,96,74,51,55,46,32,94,56,10,30.37,30.22,30.13,10,10,2,18,3,31,0.00,1,Rain-Thunderstorm,173
2013-8-18,89,70,50,54,48,41,100,60,18,30.28,30.21,30.13,10,10,10,16,1,22,0.00,0,Thunderstorm,108
2013-8-19,89,70,51,54,49,41,88,55,18,30.27,30.21,30.13,10,10,10,17,3,23,0.00,1,Thunderstorm,76
2013-8-20,89,71,53,54,50,43,88,53,20,30.21,30.17,30.10,10,10,10,14,3,20,0.00,1,Thunderstorm,356
2013-8-21,89,70,51,54,47,37,94,53,17,30.25,30.19,30.12,10,10,10,16,2,20,0.00,0,,215
2013-8-22,84,68,53,55,49,45,82,58,25,30.30,30.21,30.11,10,10,4,14,2,30,0.00,2,Rain-Thunderstorm,102
2013-8-23,68,62,57,57,55,52,94,78,60,30.23,30.15,30.07,10,10,7,10,2,17,0.00,5,Rain-Thunderstorm,198
2013-8-24,82,66,50,54,49,41,100,68,25,30.19,30.14,30.08,10,10,10,21,2,30,0.00,1,Rain-Thunderstorm,209
2013-8-25,78,63,48,52,47,45,87,55,30,30.26,30.20,30.16,10,10,10,13,2,20,0.00,1,,170
2013-8-26,71,65,59,55,52,46,88,63,43,30.29,30.24,30.20,10,10,10,13,1,,0.00,3,Rain,140
2013-8-27,78,66,55,57,54,48,94,72,34,30.24,30.20,30.13,10,10,5,23,2,32,0.00,2,Rain-Thunderstorm,178
2013-8-28,86,70,55,59,52,37,100,66,18,30.25,30.20,30.14,10,8,0,21,2,32,0.00,3,Fog-Thunderstorm,216
2013-8-29,89,70,51,54,49,45,94,59,21,30.32,30.25,30.20,10,10,10,12,2,,0.00,0,,214
2013-8-30,91,70,50,54,49,41,88,54,17,30.31,30.23,30.14,10,10,10,10,2,,0.00,0,,319
2013-8-31,89,70,51,54,49,37,94,56,16,30.24,30.19,30.14,10,10,10,12,2,20,0.00,1,Thunderstorm,157